Regional Weather Roundup
Issued by NWS

Home | Current Version | Previous Version | Graphics & Text | Print | Product List | Glossary On
Versions: 1 2 3 4 5 6 7 8 9 10 11 12 13 14 15 16 17 18 19 20 21 22 23 24 25 26 27 28 29 30 31 32 33 34 35 36 37 38 39 40 41 42 43 44 45 46 47 48 49 50
000
ASUS43 KDTX 222010
RWRMI
MICHIGAN HOURLY REGIONAL WEATHER ROUNDUP
NATIONAL WEATHER SERVICE DETROIT/PONTIAC MI
400 PM EDT FRI AUG 22 2014

NOTE: "FAIR" INDICATES FEW OR NO CLOUDS BELOW 12,000 FEET WITH NO
SIGNIFICANT WEATHER AND/OR OBSTRUCTION TO VISIBILITY.

MIZ047>049-052>055-059>063-066>070-074>076-081>083-222100-
SOUTHEAST LOWER MICHIGAN

CITY           SKY/WX    TMP DP  RH WIND       PRES   REMARKS
ADRIAN         PTSUNNY   83  70  64 VRB6      29.97S
ALMA           CLOUDY    78  69  73 E7        29.98F
ANN ARBOR      PTSUNNY   82  69  64 E6        29.96S
BAD AXE        MOSUNNY   76  65  70 NE8       29.99F
CARO           CLOUDY   N/A N/A N/A N3        29.98F
DETROIT CITY   CLOUDY    82  67  60 NE6       29.96F
DETROIT        PTSUNNY   83  66  56 NE3       29.96S
FLINT          CLOUDY    82  66  58 NE3       29.98F
GROSSE ILE     SUNNY     82  72  69 NE6       29.94S
HILLSDALE      CLOUDY    79  74  84 N5        29.99S
HOWELL         MOSUNNY   81  68  66 NE5       29.97F

CITY           SKY/WX    TMP DP  RH WIND       PRES   REMARKS
JACKSON        CLOUDY    79  71  76 CALM      29.98S
LAMBERTVILLE   CLOUDY    81  72  74 SE3       29.96F
LANSING        CLOUDY    81  70  69 NE5       29.97F
LAPEER         CLOUDY    76  66  70 N5        29.99S
MASON          CLOUDY    78  71  78 CALM      29.97S
MONROE         PTSUNNY   81  72  74 SE3       29.94F
MT. CLEMENS    MOSUNNY   80  65  60 E8        29.95F
PONTIAC        PTSUNNY   80  66  62 MISG      29.97F
PORT HOPE        N/A     68  63  84 NE8       30.00F
PORT HURON     CLOUDY    73  64  73 NE9       29.99S
TRI CITIES     MOSUNNY   79  65  62 NE10      29.99F
TROY           CLOUDY    82  66  57 N7        29.98S
SAGINAW HB     MOSUNNY   77  64  65 NE7       29.98F
$$
MIZ043>046-050>051-056>058-064>065-071>073-077>080-222100-
SOUTHWEST LOWER MICHIGAN

CITY           SKY/WX    TMP DP  RH WIND       PRES   REMARKS
BATTLE CREEK   CLOUDY    78  71  79 N5        29.99S
BENTON HARBOR  CLOUDY    80  72  76 W6        29.94F
BIG RAPIDS     CLOUDY    78  71  80 SE7       29.98R
COLDWATER      CLOUDY    81  73  78 N6        29.97S
FREMONT        CLOUDY    78  71  77 E5        29.96F HAZE
HOLLAND        CLOUDY    81  73  76 CALM      29.96F
GRAND RAPIDS   PTSUNNY   80  75  84 S6        29.97S
IONIA          CLOUDY    79  71  75 SE5       29.97S
KALAMAZOO      CLOUDY    82  72  71 NE5       29.97F
LUDINGTON      PTSUNNY   80  73  80 N5        29.96F
MARSHALL       CLOUDY    76  71  85 CALM      29.97F
MOUNT PLEASANT PTSUNNY   79  66  63 NE5       29.98S
MUSKEGON       PTSUNNY   81  71  71 S8        29.95F
SOUTH HAVEN    MOSUNNY   82  74  78 NW5       29.95F
$$
MIZ016>042-222100-
NORTHERN LOWER MICHIGAN

CITY           SKY/WX    TMP DP  RH WIND       PRES   REMARKS
ALPENA         MOSUNNY   77  63  61 SE7       30.01F
BEAVER ISLAND  MOSUNNY   74  66  76 E7        30.01S
BELLAIRE       PTSUNNY   83  65  53 CALM      29.98S
CADILLAC       CLOUDY    76  68  75 CALM      30.00F
CHARLEVOIX     CLOUDY    77  68  73 NW6       30.03R
FRANKFORT      CLOUDY    78  69  75 CALM      29.97F
GAYLORD        CLOUDY    76  64  66 NE7       30.02S
GRAYLING       PTSUNNY   80  64  58 S3        30.01F
HARBOR SPRINGS CLOUDY    77  66  68 E7        30.00S
HOUGHTON LAKE  PTSUNNY   79  64  60 VRB6      30.01S
MANISTEE       CLOUDY    75  70  83 CALM      29.98S
OSCODA         SUNNY     72  64  74 E8        30.00F
PELLSTON       CLOUDY    77  65  66 E8        30.01F
ROGERS CITY    MOSUNNY   68  66  92 NE7       30.03F
TRAVERSE CITY  CLOUDY    81  67  62 NE6       29.96F
$$
MIZ007>008-015-222100-
EASTERN UPPER MICHIGAN

CITY           SKY/WX    TMP DP  RH WIND       PRES   REMARKS
KINROSS        CLOUDY    75  64  69 SE5       30.02F
MACKINAC ISLAN CLOUDY    69  64  86 E7        30.02F
NEWBERRY       CLOUDY    70  64  82 S10       30.02F
S. S. MARIE    MOSUNNY   77  64  64 VRB5      30.02S
MUNISING         N/A     70  64  81 N8        29.98F
$$
MIZ004>006-011>014-085-222100-
CENTRAL UPPER MICHIGAN

CITY           SKY/WX    TMP DP  RH WIND       PRES   REMARKS
MANISTIQUE     CLOUDY    74  67  76 SE8       30.00F
ESCANABA       CLOUDY    72  64  78 SE8       29.99F
MENOMINEE      CLOUDY    73  68  83 E8        29.96F
SAWYER-GWINN   CLOUDY    73  66  78 SE6       30.01S
$$
MIZ001>003-009>011-084-222100-
WESTERN UPPER MICHIGAN

CITY           SKY/WX    TMP DP  RH WIND       PRES   REMARKS
IRON MOUNTAIN  CLOUDY    74  68  81 E5        29.97F
HOUGHTON       CLOUDY    69  60  73 E9        29.99F
COPPER HARBOR    N/A     62  55  77 VRB3      30.00S
IRONWOOD       CLOUDY    70  66  88 N6        29.96R
$$

ABBREVIATIONS USED IN REMARKS
   TC - TEMPERATURE IN CELSIUS
  WCI - WIND CHILL INDEX
   HX - HEAT INDEX
  VSB - VISIBILITY



USA.gov is the U.S. government's official web portal to all federal, state and local government web resources and services.